GLONASS-K 2 (40315 NORAD) Tracking and Keplerian Element Data

This shows tracking and keplerian element data for the satellite.

Feedback or suggestion? Click here.




ElementValue
Catalog40315
NameGLONASS-K 2
Epoch Orbit7922
Epoch Day34.47800247
Epoch Year2025
RAAN207.6434
Inclination63.6184
Eccentricity0.0019247
Argument of Perigee203.6429
Mean Anonmoly156.2623
Mean Motion2.13101261
Decay Rate1E-06
L11 40315U 14075A 25034.47800247 .00000100 00000+0 00000+0 0 9995
L22 40315 63.6184 207.6434 0019247 203.6429 156.2623 2.13101261 79220



Live tracking and technical data element details for GLONASS-K 2 (NORAD 40315). GLONASS-K 2 can be tracked NOW for your location showing map with azimuth and elevation plus other details from your city location.







IsCatalogInMostPopularTable: catalog: 40315, numindb: 692
Update: records affected: 1



GetName: 40315 GLONASS-K 2

Hit Count: updated at: Fri, 18 Jul 2025 16:30:14 GMT